Regional Weather Roundup
Issued by NWS Sterling, VA

Home | Current Version | Previous Version | Graphics & Text | Print | Product List | Glossary On
Versions: 1 2 3 4 5 6 7 8 9 10 11 12 13 14 15 16 17 18 19 20 21 22 23 24 25 26 27 28 29
000
ASUS41 KLWX 241510
RWRLWX

REGIONAL WEATHER ROUNDUP
NATIONAL WEATHER SERVICE BALTIMORE MD/WASHINGTON DC
1100 AM EDT FRI OCT 24 2014

Note: "FAIR" indicates few or no clouds below 12,000 feet
with no significant weather and/or obstructions to visibility.
 TC=TEMPERATURE CELSIUS

 * =Non NWS site. Station does not report precipitation (e.g. rain,
    snow, etc.), thunder, or fog.

DCZ001-MDZ009-015-VAZ040>042-051-053>054-241600-
WASHINGTON METRO

CITY           SKY/WX    TMP DP  RH WIND       PRES   REMARKS
WASHINGTON NAT PTSUNNY   63  42  46 NW14G25   29.99S
DULLES         PTSUNNY   58  42  55 NW16G24   30.01S
ANDREWS AFB    MOSUNNY   60  44  56 NW15      29.97S
FT BELVOIR     MOSUNNY   60  43  52 NW20G25   30.00S
QUANTICO       PTSUNNY   60  42  51 N9G23     30.01F
COLLEGE PARK*  MOSUNNY   61  43  51 NW13G20   29.97F
LEESBURG*      MOSUNNY   61  46  59 NW15      30.02S
GAITHERSBURG*  MOSUNNY   55  43  62 NW12G22   30.02S

$$

MDZ006>007-011-014-241600-
BALTIMORE METRO

CITY           SKY/WX    TMP DP  RH WIND       PRES   REMARKS
BWI AIRPORT    NOT AVBL
MD SCIENCE CTR   N/A     61  41  47 MISG      29.95F
MARTIN STATE   MOSUNNY   63  48  59 W16       29.95F
ANNAPOLIS      MOSUNNY   61  43  51 NW13G22   29.94S
FORT MEADE*    MOSUNNY   59  43  55 NW14G21   29.98S

$$

MDZ012-015-019>023-241600-
MARYLAND EASTERN SHORE

CITY           SKY/WX    TMP DP  RH WIND       PRES   REMARKS
OCEAN CITY     SUNNY     62  47  57 NW14G25   29.90S
SALISBURY      MOSUNNY   63  46  54 NW14G25   29.91S
BAY BRIDGE AP*   N/A     61  43  51 NW14G22   29.94S
CAMBRIDGE*     MOSUNNY   61  45  55 NW15G26   29.93S
EASTON*        MOSUNNY   63  48  59 NW16G23   29.97S

$$

MDZ017>025-241600-
SOUTHERN MARYLAND

CITY           SKY/WX    TMP DP  RH WIND       PRES   REMARKS
PATUXENT RIVER PTSUNNY   60  44  55 NW18G24   29.95F
ST INIGOES     MOSUNNY   61  42  49 NW13      29.95F
LEONARDTOWN*   MOSUNNY   59  43  55 NW9       29.97F

$$

MDZ003>005-241600-
NORTH CENTRAL MARYLAND

CITY           SKY/WX    TMP DP  RH WIND       PRES   REMARKS
FREDERICK*     SUNNY     63  43  48 W12       30.03S
HAGERSTOWN APT SUNNY     57  41  55 W12       30.00F
WESTMINSTER*   MOSUNNY   57  39  51 NW9       29.97S

$$

MDZ501>502-241600-
WESTERN MARYLAND

CITY           SKY/WX    TMP DP  RH WIND       PRES   REMARKS
OAKLAND*       MOSUNNY   43  43 100 W8        30.07S
CUMBERLAND*    MOSUNNY   57  37  47 N10       30.09S

$$

VAZ025>031-241600-
SHENANDOAH VALLEY

CITY           SKY/WX    TMP DP  RH WIND       PRES   REMARKS
WINCHESTER*    PTSUNNY   59  36  41 W16       30.02F
FRONT ROYAL*   FAIR      59  41  51 NW9       30.01F
LURAY*         FAIR      57  43  58 SW5       30.04F
NEW MARKET*    FAIR      56  43  63 CALM      30.05F
STAUNTON*      PTSUNNY   53  43  70 CALM      30.07S
WAYNESBORO*    FAIR      54  42  64 CALM      30.05S

$$

WVZ021-048>050-054>055-241600-
EASTERN WEST VIRGINIA PANHANDLE

CITY           SKY/WX    TMP DP  RH WIND       PRES   REMARKS
MARTINSBURG    MOSUNNY   57  40  52 W9        30.03S
PETERSBURG*    PTSUNNY   53  43  68 S3        30.07S

$$

VAZ036>039-050-241600-
CENTRAL FOOTHILLS

CITY           SKY/WX    TMP DP  RH WIND       PRES   REMARKS
CHARLOTTESVILL PTSUNNY  N/A N/A N/A NW6       30.01F
CULPEPER*      PTSUNNY   63  43  48 N6        30.01F
ORANGE*        PTSUNNY   59  45  58 CALM      30.02S
GORDONSVILLE*  FAIR      57  44  61 CALM      30.00S
WARRENTON*     FAIR      62  49  60 N5        29.99F

$$

VAZ055>057-241600-
NORTH AND CENTRAL PIEDMONT

CITY           SKY/WX    TMP DP  RH WIND       PRES   REMARKS
FREDERICKSBRG* PTSUNNY   61  44  52 NW8G16    29.99F
STAFFORD*      PTSUNNY   60  43  53 NW9       30.03F

$$

NCZ024-NYZ072-PAZ021-071-VAZ022-071-241600-
OTHER REGIONAL OBSERVATIONS

CITY           SKY/WX    TMP DP  RH WIND       PRES   REMARKS
NEW YORK CITY  PTSUNNY   56  42  59 VRB5      29.84F
PHILADELPHIA   MOSUNNY   62  44  51 NW12      29.88F
PITTSBURGH     CLOUDY    49  42  77 W6        30.10S
ROANOKE        PTSUNNY   56  42  59 W7        30.09F
RICHMOND       PTSUNNY   61  43  51 W6        30.01S
RALEIGH        PTSUNNY   60  43  53 NE6       30.07S

$$

ANZ530>537-241600-
MARINE OBSERVATIONS

STATION/POSITION TIME  TEMP    WIND        PRES
                       AIR SEA DIR/SP/G
                 (UTC) (F)     (DEG/KT/KT) (MB)
THOMAS PT LIGHT  1500   59 62  310/ 13/ 15 1014.8S
BALT KEY BRIDGE  1500   60     290/ 15/ 20 1013.5R
COVE POINT       1500   59     340/ 18/ 22 1014.0F
LEWISETTA        1500   58 59  320/ 14/ 17 1014.5F
SOLOMONS ISLAND  1500      63                N/A
PINEY POINT      1500          330/ 20/ 22   N/A

$$




USA.gov is the U.S. government's official web portal to all federal, state and local government web resources and services.